Location: Gro� Glienicke
(52.4675°N, 13.1079°E)
Time: 08:39:31
(UTC+00:00)

Cosmos 1515 Rocket - Pass Details

Date: 06 July 2020
Orbit: 606 x 630 km, 82.5° (Epoch: 04 August)

Event Time Altitude Azimuth Distance (km) Brightness Sun altitude
Rises 22:51:06 0° 348° (NNW) 2,881 8.9 -14.8°
Reaches altitude 10° 22:53:19 10° 348° (NNW) 1,973 7.5 -14.9°
Maximum altitude 22:57:41 85° 262° (W) 620 3.5 -14.9°
Enters shadow 23:00:07 26° 174° (S) 1,214 4.4 -14.9°
